This is the latest recevied weather packets stored in our database for station/object K5UTC. If no packets are shown the sender has not sent any weather packets the latest 1 day(s).
| Time | Temp. | Humidity | Pressure | Rain* | Wind** | Luminosity | Snow |
|---|---|---|---|---|---|---|---|
| 1777989083 | 22.78° C | 64% | 1012.8 hPa | 0 mm | 0.45 m/s, 166° | 330 W/m² | - |
| 1777988778 | 23.33° C | 59% | 1012.8 hPa | 0 mm | 0.45 m/s, 177° | 397 W/m² | - |
| 1777988476 | 23.33° C | 59% | 1012.8 hPa | 0 mm | 0 m/s | 393 W/m² | - |
| 1777988173 | 22.22° C | 61% | 1012.9 hPa | 0 mm | 0 m/s | 334 W/m² | - |
| 1777987868 | 22.22° C | 61% | 1012.8 hPa | 0 mm | 0 m/s | 323 W/m² | - |
| 1777987565 | 21.11° C | 65% | 1013 hPa | 0 mm | 0 m/s | 329 W/m² | - |
| 1777987263 | 20.56° C | 67% | 1012.9 hPa | 0 mm | 0.45 m/s, 160° | 182 W/m² | - |
| 1777986959 | 20.56° C | 65% | 1012.9 hPa | 0 mm | 0.89 m/s, 154° | 211 W/m² | - |
| 1777986658 | 21.11° C | 65% | 1013 hPa | 0 mm | 0.45 m/s, 230° | 198 W/m² | - |
| 1777986355 | 21.11° C | 66% | 1012.9 hPa | 0 mm | 0.45 m/s, 143° | 191 W/m² | - |
| 1777986053 | 20.56° C | 65% | 1012.9 hPa | 0 mm | 0.45 m/s, 157° | 219 W/m² | - |
| 1777985749 | 20.56° C | 68% | 1012.7 hPa | 0 mm | 0 m/s | 215 W/m² | - |
| 1777985447 | 20.56° C | 64% | 1012.7 hPa | 0 mm | 0.45 m/s, 155° | 145 W/m² | - |
| 1777985143 | 20.56° C | 66% | 1012.9 hPa | 0 mm | 0 m/s | 150 W/m² | - |
| 1777984839 | 20.56° C | 64% | 1012.8 hPa | 0 mm | 0 m/s | 184 W/m² | - |
| 1777984536 | 20.56° C | 65% | 1012.8 hPa | 0 mm | 0 m/s | 154 W/m² | - |
| 1777984232 | 20° C | 64% | 1012.7 hPa | 0 mm | 0 m/s | 152 W/m² | - |
| 1777983929 | 20° C | 68% | 1012.9 hPa | 0 mm | 0 m/s | 137 W/m² | - |
| 1777983626 | 18.89° C | 67% | 1012.9 hPa | 0 mm | 0.45 m/s, 162° | 123 W/m² | - |
| 1777983323 | 18.33° C | 69% | 1012.9 hPa | 0 mm | 0 m/s | 97 W/m² | - |
| 1777983019 | 17.78° C | 73% | 1013 hPa | 0 mm | 0 m/s | 74 W/m² | - |
| 1777982716 | 17.78° C | 72% | 1012.7 hPa | 0 mm | 0 m/s | 60 W/m² | - |
| 1777982411 | 17.78° C | 72% | 1012.5 hPa | 0 mm | 0 m/s | 56 W/m² | - |
| 1777982106 | 17.78° C | 72% | 1012.6 hPa | 0 mm | 0 m/s | 57 W/m² | - |
| 1777981804 | 17.78° C | 72% | 1012.2 hPa | 0 mm | 0 m/s | 54 W/m² | - |
* Rain latest hour (hover to see other rain measurements)
** Current wind speed in m/s (hover to see current wind gust speed)